Powrót do katalogu

CZ-3B R/B

AktywnyHEO
NORAD 69571·ROCKET BODY·🇨🇳 China

Wystrzelony Jun 16, 2026 z Xichang Satellite Launch Center

Loading…

Następne Przeloty (najbliższe 24 godziny)

TLE

ŚwieżeSource: Space-Track

Epoka: Sep 10, 2026, 17:02 UTC

1 69571U 26136B   26253.71002862  .13307478 -16128-5  25761-2 0  9990
2 69571  63.2795 331.3706 4693320 171.7240 200.2671  6.41690908  2681

Śledź CZ-3B R/B w czasie rzeczywistym z AllMySat

Download on the App Store